Regional Weather Roundup
Issued by NWS Green Bay, WI

Home | Current Version | Previous Version | Text Only | Print | Product List | Glossary On
Versions: 1 2 3 4 5 6 7 8 9 10 11 12 13 14 15 16 17 18 19 20 21 22 23 24 25 26 27 28 29 30 31 32 33 34 35 36 37 38 39 40 41 42 43 44 45 46 47 48 49 50
000
ASUS43 KGRB 271611
RWRGRB

NORTH-CENTRAL AND NORTHEAST WISCONSIN REGIONAL WEATHER ROUNDUP
NATIONAL WEATHER SERVICE GREEN BAY WI
1100 AM CDT WED JUL 27 2016

WIZ005-009-010>012-018-019-271700-
NORTH CENTRAL WISCONSIN

CITY           SKY/WX    TMP DP  RH WIND       PRES   REMARKS
IRONWOOD       CLOUDY    68  66  94 NE3       29.99S
MANITOWISH WTR CLOUDY    66  66 100 NE3       30.01F
ARBOR VITAE    LGT RAIN  68  66  93 E5        30.00F
EAGLE RIVER    LGT RAIN  67  66  96 CALM      30.05S
LAND O LAKES   LGT RAIN  66  65  97 CALM      30.07R
RHINELANDER    CLOUDY    67  64  90 E5        30.05F
PHILLIPS       CLOUDY    67  65  94 S5        30.02R
ANTIGO         DRIZZLE   65  64  96 CALM      30.04F
TOMAHAWK       CLOUDY    66  64  91 CALM      30.04S
MERRILL        CLOUDY    66  66 100 CALM      30.04S
$$

WIZ013-073-271700-
NORTHEAST WISCONSIN

CITY           SKY/WX    TMP DP  RH WIND       PRES   REMARKS
IRON MOUNTAIN  RAIN      68  64  87 W6        30.02S FOG
MARINETTE      CLOUDY   N/A N/A N/A VRB6      30.02R
OCONTO         CLOUDY    73  67  82 W7        30.03R
$$

WIZ017-030-035>037-045-271700-
CENTRAL WISCONSIN

CITY           SKY/WX    TMP DP  RH WIND       PRES   REMARKS
MEDFORD        CLOUDY    67  67 100 SE5       30.03S
WAUSAU         CLOUDY    68  64  87 E3        30.03S
MOSINEE        SUNNY     70  68  94 NE9       30.05R
MARSHFIELD     CLOUDY    77  65  66 NE8       30.03F
WISC RAPIDS    PTSUNNY   75  62  64 NE12      30.04S
STEVENS POINT  CLOUDY    66  65  96 NE9       30.04F
WAUPACA        CLOUDY    81  68  65 CALM      30.02R
SHAWANO        CLOUDY    76  65  70 N6        30.06R
CLINTONVILLE   CLOUDY    79  61  53 N10G17    30.04R
WAUTOMA        MOSUNNY   82  71  69 NW3       30.01S THUNDER
$$

WIZ038-039-048-051-271700-
FOX VALLEY

CITY           SKY/WX    TMP DP  RH WIND       PRES   REMARKS
NWS GREEN BAY  PTSUNNY   81  69  67 NW6       30.02R
APPLETON       PTSUNNY   77  64  65 N9        30.02R
OSHKOSH        SUNNY     83  68  60 SW6       30.00S
FOND DU LAC    MOSUNNY   83  71  67 SW7       30.01R
$$

WIZ022-050-052-271700-
EAST CENTRAL WISCONSIN

CITY           SKY/WX    TMP DP  RH WIND       PRES   REMARKS
EPHRAIM        PTSUNNY   74  63  68 W5        30.00R
WASHINGTON ISL NOT AVBL
STURGEON BAY   PTSUNNY   77  66  68 W7        30.03R
MANITOWOC      CLOUDY    74  69  85 NW5       30.00F
SHEBOYGAN      MOSUNNY   84  68  58 VRB5      30.00R
$$

LMZ563-521-522-541>543-271700-
LAKESHORE

STATION/POSITION TIME  TEMP    WIND        PRES    VSBY  WAVE
                       AIR SEA DIR/SP/G                  HT/PER
                 (UTC) (F)     (DEG/KT/KT) (MB)    (MI)  (FT/S)
SHEBOYGAN LKSHOR 1600   72      50/  5/  6 1015.9R
KEWAUNEE LKSHORE 1500   76     120/  2/  2 1015.1R
NORTHPORT PIER   1500   74     290/  6/ 12 1015.6R
N MID LAKE BUOY  1550   70 70  290/  8/ 10 1014.9R         1/ 4
S GREEN BAY BUOY 1500   74 75  310/  4/  4   N/A
SISTER BAY LKSHO 1536   77     340/  7/  9   N/A
CHAMBERS ISLAND  1500   76      CALM  /  5 1015.2
MENOMINEE LKSHOR 1500   75     260/  4/  8 1014.9R
$$



USA.gov is the U.S. government's official web portal to all federal, state and local government web resources and services.